The Dalles, WA

6:12 PM PDT on May 24, 2017 (GMT -0700)
Columbia Gorge Regional-The Dalles

Weather History for KDLS - December, 2012

Change the Weather History Date:

Thursday, December 13, 2012

  Actual Average Record
Temperature  
Mean Temperature 32 °F -  
Max Temperature 35 °F 42 °F 59 °F (1988)
Min Temperature 28 °F 29 °F -4 °F (1972)
Degree Days  
Heating Degree Days 34    
Moisture  
Dew Point 31 °F    
Average Humidity 90    
Maximum Humidity 93    
Minimum Humidity 85    
Precipitation  
Precipitation 0.00 in - - ()
Sea Level Pressure  
Sea Level Pressure 30.02 in    
Wind  
Wind Speed 2 mph (SSE)    
Max Wind Speed 5 mph    
Max Gust Speed -    
Visibility 10 miles    
Events      
Averages and records for this station are not official NWS values.
T = Trace of Precipitation, MM = Missing Value Source: NWS Daily Summary

Daily Weather History Graph

Daily Weather History Graph

Search for Another Location

Airport or City:

Trip Planner

Search our weather history database for the weather conditions in past years. The results will help you decide how hot, cold, wet, or windy it might be!

Date:

Astronomy

Dec. 13, 2012 Rise Set
Actual Time 7:37 AM PST 4:21 PM PST
Civil Twilight 7:03 AM PST 4:55 PM PST
Nautical Twilight 6:25 AM PST 5:32 PM PST
Astronomical Twilight 5:49 AM PST 6:09 PM PST
Moon 7:49 AM PST (12/13) 5:10 PM PST (12/13)
Length of Visible Light 9h 52m
Length of Day
8h 43m
New Moon, 0% of the Moon is Illuminated
Dec 13
New Moon
Dec 19
First Quarter
Dec 28
Full
Jan 4
Last Quarter
Jan 11
New

Hourly Weather History & Observations

Time (PST) Temp. Windchill Dew Point Humidity Pressure Visibility Wind Dir Wind Speed Gust Speed Precip Events Conditions
12:53 AM 30.9 °F 26.2 °F 28.9 °F 92% 30.04 in 10.0 mi SSE 4.6 mph - N/A   Clear
1:53 AM 30.9 °F 27.5 °F 28.9 °F 92% 30.04 in 10.0 mi East 3.5 mph - N/A   Clear
2:53 AM 30.0 °F - 28.0 °F 92% 30.05 in 10.0 mi Calm Calm - N/A   Clear
3:53 AM 30.0 °F 25.2 °F 28.0 °F 92% 30.06 in 10.0 mi SE 4.6 mph - N/A   Clear
4:46 AM 28.4 °F - 26.6 °F 93% 30.06 in 10.0 mi Calm Calm - N/A   Scattered Clouds
4:53 AM 28.0 °F - 26.1 °F 92% 30.07 in 10.0 mi Calm Calm - N/A   Mostly Cloudy
5:53 AM 30.9 °F - 28.9 °F 92% 30.09 in 10.0 mi Calm Calm - N/A   Overcast
6:53 AM 33.1 °F 30.0 °F 30.9 °F 92% 30.08 in 10.0 mi SSW 3.5 mph - N/A   Overcast
7:53 AM 33.1 °F 30.0 °F 30.9 °F 92% 30.09 in 10.0 mi West 3.5 mph - N/A   Overcast
8:53 AM 34.0 °F - 32.0 °F 92% 30.09 in 7.0 mi Calm Calm - N/A   Overcast
9:53 AM 34.0 °F - 32.0 °F 92% 30.09 in 10.0 mi Calm Calm - N/A   Overcast
10:43 AM 35.6 °F 32.8 °F 32.0 °F 87% 30.06 in 10.0 mi South 3.5 mph - N/A   Overcast
10:53 AM 34.0 °F - 32.0 °F 92% 30.07 in 10.0 mi Calm Calm - N/A   Overcast
11:53 AM 35.1 °F - 32.0 °F 89% 30.05 in 10.0 mi Calm Calm - N/A   Overcast
12:04 PM 35.6 °F - 32.0 °F 87% 30.04 in 10.0 mi Calm Calm - N/A   Overcast
12:53 PM 35.1 °F - 32.0 °F 89% 30.02 in 10.0 mi Calm Calm - N/A   Overcast
1:53 PM 35.1 °F - 32.0 °F 89% 29.99 in 10.0 mi Calm Calm - N/A   Overcast
3:53 PM 34.0 °F - 30.9 °F 89% 29.96 in 10.0 mi Calm Calm - N/A   Overcast
5:53 PM 34.0 °F - 32.0 °F 92% 29.94 in 10.0 mi Calm Calm - N/A   Overcast
6:53 PM 34.0 °F - 32.0 °F 92% 29.93 in 10.0 mi Calm Calm - N/A   Overcast
7:53 PM 34.0 °F - 30.9 °F 89% 29.92 in 10.0 mi Calm Calm - N/A   Overcast
8:53 PM 34.0 °F - 30.9 °F 89% 29.91 in 10.0 mi Calm Calm - N/A   Overcast
9:53 PM 34.0 °F - 30.9 °F 89% 29.91 in 10.0 mi Calm Calm - N/A   Overcast
10:53 PM 35.1 °F - 30.9 °F 85% 29.91 in 10.0 mi Calm Calm - N/A   Overcast
11:53 PM 35.1 °F - 30.9 °F 85% 29.91 in 10.0 mi Calm Calm - N/A   Overcast